Location: Marsån
(66.4167°N, 22.2833°E)
Time: 10:02:02
(UTC+00:00)

Cosmos 1745 Rocket - Pass Details

Date: 24 February 2024
Orbit: 951 x 998 km, 83.0° (Epoch: 15 April)

Event Time Altitude Azimuth Distance (km) Brightness Sun altitude
Rises 19:46:47 0° 338° (NNW) 3,718 8.0 -25.6°
Reaches altitude 10° 19:49:23 10° 342° (NNW) 2,760 7.1 -25.8°
Maximum altitude 19:55:37 57° 61° (ENE) 1,152 4.2 -26.3°
Enters shadow 19:56:12 55° 83° (E) 1,174 4.1 -26.3°
